Date,TemperatureHighF,TemperatureAvgF,TemperatureLowF,DewpointHighF,DewpointAvgF,DewpointLowF,HumidityHigh,HumidityAvg,HumidityLow,PressureMaxIn,PressureMinIn,WindSpeedMaxMPH,WindSpeedAvgMPH,GustSpeedMaxMPH,PrecipitationSumIn
2013-8-19,77.1,63.5,55.3,59.0,56.5,54.0,98,80,53,29.88,29.82,3,0,6,0.00
2013-8-20,72.6,59.9,55.7,61.0,57.6,55.0,99,93,67,29.89,29.82,4,0,11,0.01
2013-8-21,68.4,58.6,53.3,58.0,55.0,52.0,98,88,65,29.94,29.88,7,0,13,0.00
2013-8-22,54.7,54.2,53.7,54.0,53.6,53.0,99,98,97,29.95,29.90,2,0,5,0.01
2013-8-30,63.3,55.6,58.3,58.0,43.7,-99.9,90,79,83,29.93,29.93,0,-83,0,0.00
2013-8-31,80.6,61.7,50.0,61.0,55.0,49.0,98,81,51,29.96,29.87,4,0,8,0.00
2013-9-1,74.7,60.9,49.3,61.0,56.0,49.0,98,85,57,29.93,29.87,5,1,13,0.00
2013-9-2,78.3,65.2,56.6,64.0,59.9,54.0,98,84,61,29.93,29.86,5,0,12,0.00
2013-9-3,76.4,63.5,52.4,59.0,55.5,51.0,94,77,46,29.98,29.89,6,1,12,0.00
2013-9-4,77.8,63.7,53.2,61.0,56.0,52.0,97,78,53,30.01,29.91,7,1,14,0.00
2013-9-5,78.1,64.8,54.0,59.0,55.0,52.0,94,73,48,29.99,29.93,7,1,10,0.00
2013-9-6,88.3,69.5,53.6,59.0,52.2,46.0,92,60,27,29.97,29.82,4,0,8,0.00
2013-9-7,89.4,70.4,52.6,58.0,52.6,48.0,97,58,28,29.85,29.79,6,0,8,0.00
2013-9-8,83.2,61.7,50.3,60.0,53.8,49.0,98,79,40,29.86,29.76,5,0,8,0.00
2013-9-9,83.9,60.0,47.5,61.0,53.4,47.0,98,82,42,29.81,29.71,4,0,6,0.00
2013-9-10,63.7,58.8,55.2,61.0,58.1,55.0,99,97,88,29.90,29.73,5,0,10,0.04
2013-9-11,64.9,60.6,59.0,62.0,59.7,59.0,100,97,88,30.00,29.89,3,0,5,0.05
2013-9-12,72.8,60.4,53.1,65.0,58.2,53.0,99,93,71,29.97,29.86,4,0,12,0.01
2013-9-13,75.9,59.6,50.6,61.0,55.1,50.0,100,87,56,29.89,29.73,5,0,8,0.00
2013-9-14,74.7,58.0,49.2,60.0,53.6,49.0,99,86,58,29.81,29.71,5,0,8,0.00
2013-9-15,75.3,59.3,47.0,59.0,54.4,47.0,99,86,54,29.86,29.75,4,1,10,0.00
2013-9-16,81.2,62.7,51.8,61.0,55.0,51.0,99,79,46,29.88,29.75,4,0,7,0.00
2013-9-17,73.1,60.9,50.4,58.0,52.8,49.0,97,77,54,29.88,29.79,6,0,13,0.00
2013-9-18,81.2,63.7,51.2,54.0,48.9,42.0,90,63,26,29.91,29.80,4,0,9,0.00
2013-9-19,81.5,62.4,50.0,53.0,48.8,46.0,90,66,33,29.85,29.74,4,0,7,0.00
2013-9-20,74.7,59.3,47.7,62.0,55.1,45.0,99,87,61,29.83,29.75,7,1,12,0.11
2013-9-21,64.6,58.2,51.9,62.0,57.0,51.0,100,96,80,29.89,29.77,9,0,10,0.32
2013-9-22,71.6,58.8,49.1,59.0,53.1,49.0,99,83,53,30.00,29.89,9,0,13,0.00
2013-9-23,80.3,63.6,52.7,64.0,56.6,51.0,97,80,55,30.01,29.91,4,0,11,0.00
2013-9-24,76.0,61.1,50.1,58.0,53.0,47.0,94,76,49,29.98,29.90,10,1,19,0.00
2013-9-25,69.0,56.5,48.0,52.0,47.4,44.0,95,74,48,29.94,29.82,6,1,17,0.00
2013-9-26,72.3,57.9,45.6,49.0,44.6,40.0,86,64,33,30.00,29.85,6,0,8,0.00
2013-9-27,77.6,60.9,49.5,47.0,41.7,33.0,79,55,22,30.09,30.00,5,0,12,0.00
2013-9-28,77.2,60.5,50.3,56.0,48.5,40.0,94,69,27,30.07,30.00,9,0,9,0.00
2013-9-29,62.8,58.2,53.8,61.0,57.5,52.0,99,97,92,30.09,30.03,2,0,4,0.15
2013-9-30,64.1,58.5,49.8,64.0,58.2,49.0,100,99,95,30.04,29.96,2,0,5,0.16
2013-10-1,73.0,58.4,48.5,56.0,51.3,48.0,99,80,43,30.00,29.91,3,0,6,0.01
2013-10-2,73.5,57.8,48.7,54.0,48.1,42.0,96,73,42,30.02,29.92,3,0,8,0.00
2013-10-3,75.5,60.3,45.7,46.0,37.0,19.0,87,49,13,30.09,29.97,3,0,8,0.00
2013-10-4,81.4,66.6,51.4,40.0,32.1,21.0,59,31,11,30.08,30.00,4,0,12,0.00
2013-10-5,84.8,67.3,54.2,39.0,33.0,24.0,52,31,12,30.17,30.08,5,0,9,0.00
2013-10-6,82.5,66.3,57.1,42.0,37.8,30.0,53,38,16,30.10,29.98,2,0,7,0.00
2013-10-7,79.5,63.2,51.5,45.0,40.3,35.0,65,46,23,29.98,29.85,2,0,6,0.00
2013-10-8,72.0,57.4,47.5,51.0,45.4,40.0,84,66,37,29.90,29.69,4,0,6,0.00
2013-10-9,69.9,56.9,45.3,46.0,43.8,41.0,90,64,38,29.76,29.62,4,0,10,0.00
2013-10-10,66.5,53.6,45.6,51.0,46.2,42.0,97,77,48,30.00,29.76,7,0,10,0.00
2013-10-11,62.5,50.3,42.7,51.0,47.1,42.0,98,89,67,30.09,29.97,3,0,8,0.00
2013-10-12,65.8,52.1,40.7,52.0,46.3,40.0,99,82,57,30.00,29.88,4,0,7,0.00
2013-10-13,71.3,55.5,46.3,53.0,45.6,40.0,96,72,38,30.05,29.92,7,0,10,0.00
2013-10-14,77.6,60.0,48.2,49.0,42.3,36.0,81,56,26,30.11,30.00,5,0,6,0.00
2013-10-15,82.5,62.7,52.2,45.0,37.5,27.0,67,44,13,30.03,29.95,2,0,7,0.00
2013-10-16,81.9,63.4,51.3,42.0,36.4,28.0,62,41,15,30.07,29.98,3,0,6,0.00
2013-10-17,80.3,60.6,45.2,44.0,38.8,33.0,84,49,20,30.07,29.95,3,0,6,0.00
2013-10-18,71.4,51.8,41.9,52.0,43.8,39.0,94,77,38,30.05,29.98,4,0,6,0.00
2013-10-19,79.8,55.6,41.5,52.0,43.9,40.0,96,71,29,30.08,30.00,4,0,6,0.00
2013-10-20,69.2,50.9,40.8,54.0,45.7,40.0,98,84,53,30.02,29.92,4,0,6,0.00
2013-10-21,63.8,49.8,42.7,54.0,46.8,42.0,98,90,67,30.01,29.93,4,0,6,0.00
2013-10-22,67.9,50.2,39.9,54.0,46.0,39.0,99,87,58,30.03,29.93,3,0,5,0.00
2013-10-23,63.3,48.9,40.9,53.0,46.1,40.0,98,90,66,29.98,29.91,4,0,5,0.00
2013-10-24,60.9,50.2,45.1,52.0,47.4,44.0,99,90,69,30.11,29.98,3,0,8,0.00
2013-10-25,68.3,52.3,43.6,55.0,47.6,43.0,98,85,57,30.18,30.09,2,0,7,0.01
2013-10-26,74.2,54.3,42.2,55.0,47.1,41.0,97,79,43,30.14,30.03,2,0,4,0.00
2013-10-27,60.5,48.6,41.3,51.0,45.9,41.0,98,90,68,30.02,29.64,5,0,10,0.00
2013-10-28,63.3,50.7,42.2,48.0,44.5,41.0,96,81,53,29.83,29.67,4,0,8,0.00
2013-10-29,62.1,51.2,44.6,49.0,46.2,43.0,96,84,60,30.05,29.84,3,0,10,0.00
2013-10-30,64.6,50.8,43.1,50.0,44.1,41.0,97,79,57,30.16,30.05,3,0,8,0.00
2013-10-31,69.7,53.8,44.8,49.0,44.6,42.0,91,74,42,30.17,30.07,4,0,6,0.00
2013-11-1,76.1,59.6,50.5,51.0,46.8,44.0,83,66,33,30.14,30.00,2,0,6,0.00
2013-11-2,68.8,54.4,42.2,54.0,46.7,39.0,96,76,50,30.01,29.89,3,0,5,0.00
2013-11-3,64.6,50.0,40.1,42.0,37.3,26.0,84,65,24,30.04,29.93,1,0,6,0.00
2013-11-4,70.6,52.4,38.9,41.0,36.9,28.0,86,60,21,30.09,29.92,4,0,4,0.00
2013-11-5,72.2,56.5,47.1,46.0,40.2,36.0,76,57,28,30.21,30.08,3,0,6,0.00
2013-11-6,73.0,60.1,51.2,52.0,44.8,40.0,81,60,32,30.25,30.15,3,0,6,0.00
2013-11-7,70.9,58.3,48.9,51.0,44.5,39.0,91,63,32,30.16,30.06,5,0,7,0.00
2013-11-8,72.6,53.3,42.8,54.0,46.1,38.0,94,79,44,30.07,29.95,4,0,7,0.00
2013-11-9,72.3,54.7,43.1,51.0,46.3,41.0,97,77,40,30.05,29.97,3,0,5,0.00
2013-11-10,61.4,51.5,44.5,52.0,48.3,44.0,97,89,68,30.12,30.01,4,0,9,0.00
2013-11-11,64.3,53.7,46.7,52.0,48.3,46.0,97,83,55,30.20,30.07,2,0,5,0.00
2013-11-12,68.5,57.1,51.4,54.0,50.4,47.0,93,79,55,30.27,30.18,3,0,6,0.00
2013-11-13,74.1,55.4,45.4,56.0,50.2,44.0,97,84,53,30.24,30.09,2,0,4,0.00
2013-11-14,60.8,51.0,43.7,55.0,46.9,40.0,99,86,73,30.09,29.87,1,0,5,0.00
2013-11-15,64.0,50.7,42.2,45.0,41.9,39.0,89,73,47,29.86,29.73,2,0,5,0.00
2013-11-16,68.0,51.2,41.7,50.0,44.7,39.0,95,80,46,29.92,29.77,3,0,6,0.00
2013-11-17,59.4,48.6,41.9,50.0,45.2,41.0,97,88,69,30.08,29.92,2,0,6,0.00
2013-11-18,56.3,48.7,42.0,50.0,46.2,41.0,98,91,75,30.16,30.08,3,0,6,0.04
2013-11-19,54.8,52.6,49.5,55.0,52.3,49.0,99,99,97,30.09,29.91,2,0,7,1.48
2013-11-20,56.0,52.5,47.1,56.0,52.5,47.0,100,99,99,29.92,29.85,1,0,5,0.69
2013-11-21,59.4,53.4,47.5,53.0,35.6,14.0,100,60,20,29.99,29.89,6,0,9,0.00
2013-11-22,70.5,61.3,48.0,35.0,18.4,10.0,59,21,10,30.02,29.91,6,1,11,0.00
2013-11-23,65.4,54.6,42.8,38.0,29.1,11.0,73,42,14,30.09,29.93,3,0,10,0.00
2013-11-24,61.7,48.7,40.5,47.0,41.1,34.0,92,77,43,30.24,30.08,3,0,6,0.00
2013-11-25,60.9,50.0,42.9,45.0,43.0,41.0,94,78,51,30.31,30.24,2,0,5,0.00
2013-11-26,61.7,51.3,44.9,46.0,42.9,38.0,90,74,45,30.25,30.01,2,0,6,0.00
2013-11-27,63.3,52.6,44.5,46.0,42.7,40.0,86,71,46,30.01,29.83,3,0,8,0.00
2013-11-28,69.3,54.3,46.5,50.0,43.8,41.0,89,70,40,30.06,29.86,2,0,5,0.00
2013-11-29,67.2,53.2,45.2,49.0,44.2,42.0,88,74,43,30.20,30.06,1,0,5,0.00
2013-11-30,64.2,52.4,46.1,51.0,46.5,44.0,92,81,58,30.26,30.18,1,0,4,0.00
2013-12-1,67.5,53.6,46.0,52.0,47.0,44.0,95,80,50,30.33,30.21,3,0,4,0.00
2013-12-2,62.5,52.1,44.7,54.0,49.1,44.0,98,90,68,30.20,29.92,4,0,7,0.01
2013-12-3,53.5,45.2,36.0,49.0,36.6,30.0,97,73,45,29.95,29.84,6,0,7,0.00
2013-12-4,50.9,39.3,32.7,35.0,30.8,24.0,90,74,36,30.10,29.96,2,0,8,0.00
2013-12-5,48.7,37.5,30.9,34.0,29.9,22.0,91,76,36,30.17,30.09,2,0,7,0.00
2013-12-6,47.6,39.0,29.8,47.0,35.5,28.0,98,88,53,30.19,29.91,4,0,9,0.44
2013-12-7,45.3,36.2,29.3,40.0,32.8,28.0,99,88,57,30.26,29.93,4,0,9,0.01
2013-12-8,45.2,35.1,29.5,30.0,27.0,19.0,96,76,38,30.33,30.24,5,0,5,0.00
2013-12-9,48.9,36.7,28.7,36.0,29.3,24.0,93,77,39,30.41,30.31,2,0,4,0.00
2013-12-10,52.7,40.1,31.3,39.0,31.9,24.0,95,76,34,30.40,30.20,2,0,3,0.00
2013-12-11,55.9,43.2,34.2,38.0,34.3,30.0,92,73,40,30.23,30.17,2,0,4,0.00
2013-12-12,57.5,45.5,37.1,40.0,34.7,29.0,86,68,36,30.25,30.17,2,0,4,0.00
2013-12-13,57.8,45.2,37.0,43.0,38.7,34.0,92,79,48,30.32,30.22,1,0,4,0.00
2013-12-14,62.7,47.3,38.9,47.0,41.1,37.0,97,81,41,30.39,30.30,1,0,3,0.00
2013-12-15,59.7,47.9,38.1,46.0,41.1,37.0,96,79,48,30.35,30.22,2,0,4,0.00
2013-12-16,65.1,51.3,42.9,47.0,41.3,37.0,90,70,45,30.22,30.12,2,0,7,0.00
2013-12-17,64.0,51.8,45.8,45.0,40.9,38.0,86,68,41,30.16,30.01,2,0,4,0.00
2013-12-18,56.3,48.8,43.5,48.0,43.4,39.0,89,81,72,30.01,29.73,1,0,4,0.00
2013-12-19,60.5,46.5,39.1,41.0,36.3,31.0,90,70,35,29.94,29.73,2,0,9,0.00
2013-12-20,61.5,47.3,36.6,44.0,34.0,23.0,77,62,26,30.01,29.92,1,0,4,0.00
2013-12-21,61.5,51.6,44.9,51.0,46.9,43.0,94,84,66,30.08,29.96,2,0,5,0.00
2013-12-22,64.3,50.2,43.4,50.0,44.2,41.0,94,81,56,30.28,30.08,1,0,4,0.00
2013-12-23,64.7,52.2,44.1,47.0,43.8,41.0,89,75,49,30.39,30.28,2,0,3,0.00
2013-12-24,67.8,53.1,45.3,50.0,45.6,43.0,92,77,46,30.33,30.19,1,0,4,0.00
2013-12-25,67.4,52.3,44.6,46.0,42.1,35.0,90,71,32,30.28,30.19,1,0,5,0.00
2013-12-26,66.9,53.2,43.3,44.0,38.5,31.0,84,60,32,30.23,30.15,2,0,4,0.00
2013-12-27,60.6,50.2,42.9,46.0,37.5,31.0,79,63,41,30.21,30.10,2,0,4,0.00
2013-12-28,63.9,50.3,38.8,45.0,38.7,35.0,87,66,42,30.14,30.02,2,0,3,0.00
2013-12-29,66.2,52.5,44.7,39.0,34.2,28.0,74,53,26,30.17,30.07,2,0,3,0.00
2013-12-30,61.4,50.1,40.7,45.0,37.3,31.0,95,65,33,30.23,30.14,3,0,8,0.00
2013-12-31,58.1,46.5,40.0,47.0,42.5,38.0,96,87,53,30.26,30.16,2,0,4,0.00
2014-1-1,62.5,48.9,40.1,47.0,41.6,38.0,94,78,42,30.20,30.13,2,0,4,0.00
2014-1-2,65.0,53.0,45.7,45.0,40.5,36.0,85,64,39,30.18,30.05,2,0,4,0.00